Location: Dittelbrunn
(50.0738°N, 10.2196°E)
Time: 11:23:17
(UTC+00:00)

Lacrosse 5 rocket - Pass Details

Date: 18 September 2020
Orbit: 460 x 635 km, 57.0° (Epoch: 23 October)

Event Time Altitude Azimuth Distance (km) Brightness Sun altitude
Rises 18:07:09 0° 251° (WSW) 2,722 6.0 -7.5°
Reaches altitude 10° 18:09:21 10° 255° (WSW) 1,860 5.2 -7.8°
Maximum altitude 18:13:32 57° 335° (NNW) 696 2.1 -8.5°
Drops below altitude 10° 18:17:57 10° 55° (NE) 1,966 3.8 -9.2°
Enters shadow 18:19:33 - 58° (ENE) 2,587 4.3 -9.4°
